{"data":{"norad_id":40110,"epoch":"2026-05-25T04:09:14.570784Z","epoch_age_seconds":63558,"freshness":"FRESH","line1":"1 40110U 14047B   26145.17308531  .00000031  00000+0  13069-3 0  9993","line2":"2 40110  63.3790  79.3616 0388099  14.5703 346.6141 13.45437618579182","mean_motion":13.45437618,"eccentricity":0.0388099,"inclination_deg":63.379,"raan_deg":79.3616,"arg_perigee_deg":14.5703,"mean_anomaly_deg":346.6141,"bstar":0.00013069,"rev_number":57918,"period_min":107.02837357414,"perigee_km":799.28948407605,"apogee_km":1378.8942971184,"semimajor_km":7467.2288905972,"source":"CELESTRAK","updated_at":"2026-05-25T13:37:55.471693Z"}}